Simultaneous Nadir Overpasses (SNOs) Predictions

Prediction of SNOs between AQUA and NPP Satellite Orbit:

Table of predicted SNOs for the next 14.0 days since TLE Epoch: 3/2/2024
Index Date (AQUA) Time (AQUA) Lat,Lon (AQUA) SZA (AQUA ) Date (NPP) Time (NPP) Lat,Lon (NPP) SZA (NPP ) Distance(km) Time Diff (sec)
1 03/04/2024 11:06:02 81.12, -67.18 95.08 03/04/2024 11:04:49 81.12, -67.07 95.11 1.93 73
2 03/04/2024 11:55:24 -81.14, 100.95 85.00 03/04/2024 11:55:32 -81.14, 101.00 85.02 0.99 8
3 03/07/2024 00:49:33 -81.13, -92.72 85.98 03/07/2024 00:49:26 -81.13, -92.85 85.96 2.38 7
4 03/07/2024 01:38:34 81.51, 83.19 92.88 03/07/2024 01:39:47 81.30, 83.66 92.71 24.11 73
5 03/09/2024 13:43:41 -81.12, 73.60 86.96 03/09/2024 13:43:19 -81.13, 73.62 86.95 0.49 22
6 03/09/2024 14:33:02 81.15,-118.32 92.97 03/09/2024 14:34:02 81.15,-118.41 92.94 1.69 60
7 03/12/2024 02:37:47 -81.13,-119.72 88.00 03/12/2024 02:37:11 -81.13,-119.59 88.00 2.27 36
8 03/12/2024 03:27:08 81.15, 48.33 91.93 03/12/2024 03:27:54 81.15, 48.37 91.90 0.72 46
9 03/14/2024 15:31:53 -81.12, 46.58 88.99 03/14/2024 15:31:05 -81.12, 46.40 88.93 3.02 48



Historial Predications of SNOs between AQUA and NPP
